Location: Fontevrault
(47.1823°N, 0.0493°E)
Time: 04:18:17
(UTC+00:00)

Uosat 12 SS-18 rocket - Pass Details

Date: 31 October 2021
Orbit: 579 x 1405 km, 64.6° (Epoch: 01 December)

Event Time Altitude Azimuth Distance (km) Brightness Sun altitude
Rises 22:23:27 0° 321° (NW) 3,932 8.7 -53.2°
Reaches altitude 10° 22:25:58 10° 320° (NW) 3,075 8.0 -53.5°
Enters shadow 22:26:40 13° 320° (NW) 2,845 7.8 -53.5°
